Regional Weather Roundup
Issued by NWS

Home | Current Version | Previous Version | Graphics & Text | Print | Product List | Glossary On
Versions: 1 2 3 4 5 6 7 8 9 10 11 12 13 14 15 16 17 18 19 20 21 22 23 24 25 26 27 28 29 30 31 32 33 34 35 36 37 38 39 40 41 42 43 44 45 46 47 48 49 50
000
ASUS45 KCYS 191910
RWRWY

WYOMING REGIONAL WEATHER ROUNDUP
NATIONAL WEATHER SERVICE CHEYENNE WY
100 PM MDT SUN APR 19 2015

NOTE:  "FAIR" INDICATES FEW OR NO CLOUDS BELOW 12,000 FEET
WITH NO SIGNIFICANT WEATHER AND/OR OBSTRUCTIONS TO VISIBILITY.

WYZ001-192000-
YELLOWSTONE NATIONAL PARK

CITY           SKY/WX    TMP DP  RH WIND       PRES   REMARKS
LK YELLOWSTONE   N/A     36  19  50 CALM      30.14F
W YELLOWSTONE  NOT AVBL

$$
WYZ002>013-054>058-071-098>099-192000-
NORTHERN WYOMING

CITY           SKY/WX    TMP DP  RH WIND       PRES   REMARKS
JACKSON        FAIR      48  14  25 SW3       30.10F
CODY           FAIR      45  18  33 N9        30.15F
GREYBULL       FAIR      52  11  19 N15G22    30.13F
WORLAND        FAIR      51  14  22 N9        30.13F
SHERIDAN       CLOUDY    47  21  35 N20G29    30.16F
BUFFALO        FAIR      45  17  32 N30G41    30.11F
GILLETTE       FAIR      46  15  28 NW26G38   30.09F
HULETT         FAIR      45  19  36 NW18G32   30.08F
NEWCASTLE      FAIR      43  19  39 NW23G33   30.07F

$$
WYZ014>020-022>026-101>103-192000-
CENTRAL WYOMING

CITY           SKY/WX    TMP DP  RH WIND       PRES   REMARKS
BIG PINEY      FAIR      47  22  37 VRB6      30.13F
PINEDALE       FAIR      43  19  39 CALM      30.13F
DUBOIS         FAIR      46  19  34 E9        30.08F
LANDER         FAIR      45  26  47 VRB3      30.13F
RIVERTON       FAIR      46  21  37 N10       30.14F
CASPER         CLOUDY    47  21  35 N14G20    30.11F
DOUGLAS        CLOUDY    42  24  49 NW17      30.12F

$$
WYZ021-027>030-104>119-192000-
SOUTHERN WYOMING

CITY           SKY/WX    TMP DP  RH WIND       PRES   REMARKS
EVANSTON       FAIR      49  32  52 N3        30.12F
KEMMERER       MOCLDY    45  28  53 CALM      30.14F
FORT BRIDGER   PTCLDY    46  32  57 NW3       30.16F
ROCK SPRINGS   CLOUDY    42  25  50 CALM      30.14F
DIXON          CLOUDY    43  22  44 NW7       30.18F
RAWLINS        FAIR      42  22  44 NW10G17   30.14F
SARATOGA       FAIR      34  23  64 SW3       30.16F
LARAMIE        FAIR      32  21  64 NW22      30.10F WCI  19
CHEYENNE       CLOUDY    38  23  55 N20G33    30.09F WCI  28
TORRINGTON     PTSUNNY   47  18  31 NW25G36   30.07F
PINE BLUFFS    CLOUDY    41  23  48 NW22G31   30.10S

$$



USA.gov is the U.S. government's official web portal to all federal, state and local government web resources and services.